Flag for Germany Weather past 2 weeks in Weinheim, Baden-Württemberg, Germany

Now
39 °F

More clouds than sun.


Feels Like: 37 °F
Forecast: 29 / 45 °F
Wind: 3 mph from North

Location: Baden Wurttemberg - Neuostheim

Current Time: Feb 27, 2015 at 12:44:49 PM

Latest Report: Feb 27, 2015 at 11:50 AM


Visibility: N/A

Pressure: 29.89 "Hg

Humidity: 93%

Dew point: 37 °F

Location of WeinheimLocation

Historic Weather in Weinheim — Graph

°F

Weinheim temperature yesterday

Maximum temperature yesterday: 52 °F (at 2:50 PM)
Minimum temperature yesterday: 37 °F (at 5:50 AM)
Average temperature yesterday: 45 °F

Past Weeks' High & Low Weather Summary

 TemperatureHumidityPressure
High55 °F (Feb 20, 3:20 PM)100% (Feb 14, 8:20 AM)30.74 "Hg (Feb 14, 8:20 AM)
Low28 °F (Feb 15, 7:50 AM)44% (Feb 20, 3:20 PM)29.47 "Hg (Feb 23, 2:20 PM)
Average39 °F77%30.06 "Hg
* Reported Feb 12 11:20 AM — Feb 27 11:20 AM, Weinheim, Weather by CustomWeather, © 2015

Note: Actual official high and low records may vary slightly from our data, if they occured in-between our weather recording intervals... More about our weather records

Advertising

Weinheim weather history for previous 24 hours

 ConditionsComfort  
Time TempWeatherWind HumidityBarometerVisibility
11:20 AM
Fri, Feb 27
39 °FLight rain. More clouds than sun.3 mph87%29.89 "HgN/A
10:50 AM39 °FLight rain. Broken clouds.5 mph93%29.86 "Hg6 mi
10:20 AM39 °FLight rain. Overcast.3 mph93%29.86 "Hg5 mi
9:50 AM39 °FLight rain. Overcast.2 mph93%29.86 "Hg6 mi
9:20 AM39 °FLight rain. Overcast.2 mph87%29.83 "Hg6 mi
8:50 AM39 °FLight rain. Overcast.1 mph87%29.83 "Hg6 mi
8:20 AM39 °FLight rain. Overcast.1 mph87%29.83 "HgN/A
7:50 AM39 °FLight rain. Partly sunny.2 mph87%29.80 "HgN/A
7:20 AM39 °FLight rain. Mostly cloudy.2 mph87%29.80 "HgN/A
6:50 AM39 °FLight rain. Passing clouds.No wind87%29.80 "HgN/A
6:20 AM39 °FLight rain. Passing clouds.2 mph81%29.80 "HgN/A
5:50 AM41 °FLight rain. Passing clouds.3 mph70%29.80 "HgN/A
9:20 PM
Thu, Feb 26
46 °FClear.7 mph46%29.95 "Hg10 mi
8:50 PM46 °FClear.7 mph46%29.95 "Hg10 mi
8:20 PM46 °FPassing clouds.5 mph53%29.95 "HgN/A
7:50 PM46 °FClear.5 mph57%29.98 "Hg10 mi
7:20 PM46 °FClear.5 mph57%29.98 "Hg10 mi
6:50 PM48 °FClear.2 mph54%29.98 "Hg10 mi
6:20 PM50 °FClear.3 mph50%29.98 "Hg10 mi
5:50 PM50 °FSunny.2 mph47%29.98 "Hg10 mi
5:20 PM50 °FSunny.3 mph47%30.01 "Hg10 mi
4:50 PM50 °FSunny.3 mph47%30.01 "Hg10 mi
4:20 PM52 °FPassing clouds.6 mph44%30.01 "HgN/A
3:50 PM52 °FPassing clouds.6 mph44%30.04 "HgN/A
3:20 PM52 °FPassing clouds.7 mph44%30.04 "HgN/A
2:50 PM52 °FPassing clouds.6 mph47%30.07 "HgN/A
2:20 PM50 °FPassing clouds.7 mph47%30.07 "HgN/A
1:50 PM50 °FPassing clouds.6 mph47%30.09 "HgN/A
1:20 PM48 °FPassing clouds.6 mph54%30.09 "HgN/A
12:50 PM48 °FPassing clouds.6 mph50%30.12 "HgN/A
12:20 PM46 °FPassing clouds.6 mph57%30.12 "HgN/A
Weather by CustomWeather, © 2015

See weather overviewHow to use our weather pages